FENGYUN 1C DEB, 35241

Orbit data source: Space-Track

FENGYUN 1C DEB, 35241 is space debris in SSO originally from a launch on Mon, 10 May 1999 UTC launched from the Taiyaun Space Center, China (TSC). Fengyun 1C debris stems from the Chinese weather satellite Fengyun-1C, which was intentionally destroyed by a Chinese anti-satellite missile in 2007. This event dramatically increased the amount of space debris, with thousands of trackable fragments posing hazards to satellites and human spaceflight. The Fengyun 1C debris cloud has become a focal point in discussions about space sustainability and the need for international regulations to prevent the creation of new debris.

Loading next visibility...
Identifier
35241, 1999-025DQZ
Orbit
SSO
Country
Flag of CNCN / PRC
Related business
Manufacturer
Unknown
Mission
Spacecraft
Bus & Motor
Unknown
Mass
Unknown
Launch date (UTC)
1999-05-10 (27 years ago)
Launch vehicle
Unknown
Launch site
Taiyaun Space Center, China (TSC)
Object type
Payload
Rocket body
Debris
Shape & HBR
Unknown shape, 0.1 m
Radar Cross Section
Small (<0.1 m²)

Expand to show TLE details & history
Last TLE update: 13 hours ago

TLE from 13 hours ago
0 FENGYUN 1C DEB
1 35241U 99025DQZ 26095.26079568  .00002326  00000-0  14187-2 0  9991
2 35241  98.6307  23.4041 0134642 249.9780 108.6848 14.02578273891971
Epoch: 2026-04-05T06:15Z
TLE epoch observation values (Epoch: 2026-04-05T06:15:32.746Z)
Latitude
-0.00009°
Longitude
95.94891°
Altitude
920.282 km
Speed
7.375 km/s
True Right ascension
01h 33m 36s
True Declination
0° 00' 00"
Sunlit
Object was in daylight at epoch
Visualization orbit readout
Latitude
Unknown
Longitude
Unknown
Altitude
Unknown
Speed
Unknown
Apparent Right ascension
Unknown
Apparent Declination
Unknown
Sunlit
N/A
Visualization observer readout
Local Sidereal Time
01:03:42
Azimuth
Unknown
Elevation
Unknown
Doppler factor
Unknown
Orbital elements
Apogee altitude
979.811 km
Perigee altitude
784.305 km
Semi-major axis
7,260.195 km
Eccentricity
0.01346
Inclination
98.6307°
RAAN
23.4041°
Arg. of periapsis
249.978°
True anomaly
110.13837°
Mean anomaly
108.6848°
Eccentric anomaly
109.41239°
Mean motion
3.50849 °/min
Orbital period
102.61 mins
BSTAR
0.0014187
Loading maneuver chart data...
Computing Atmospheric mass density...

Documentation

Showing up to 5 results
|